QPF
0.01 0.01 0.01 0.01 0.01 0.01 0.02 0.01 0.02 0.02 0.02 0.03 0.02 0.03 0.03 0.01 0.01 0.01 0.01 0.01 0.01 0.01 0.03 0.02 0.02 0.03 0.03 0.04 0.03 0.04 0.04 0.04 0.04 0.05 0.06 0.07 0.07 0.07 0.07 0.06 0.06 0.09 0.11
0.03 0.03 0.03 0.02 0.02 0.01 0.01 0.02 0.02 0.02 0.02 0.02 0.02 0.02 0.02 0.02 0.02 0.01 0.01 0.01 0.01 0.01 0.02 0.03 0.02 0.03 0.02 0.02 0.02 0.03 0.04 0.04 0.03 0.03 0.04 0.06 0.07 0.06 0.06 0.06 0.07 0.06 0.06
0.07 0.07 0.05 0.04 0.02 0.02 0.02 0.01 0.01 0.02 0.02 0.02 0.02 0.02 0.03 0.04 0.03 0.02 0.01 0.01 0.01 0.02 0.02 0.02 0.03 0.02 0.01 0.01 0.02 0.02 0.03 0.03 0.02 0.02 0.03 0.03 0.04 0.05 0.06 0.07 0.06 0.05 0.04
0.11 0.12 0.09 0.04 0.03 0.03 0.03 0.02 0.02 0.01 0.02 0.02 0.02 0.03 0.03 0.03 0.03 0.02 0.01 0.01 0.01 0.02 0.02 0.02 0.03 0.03 0.03 0.03 0.03 0.02 0.02 0.02 0.01 0.01 0.01 0.01 0.01 0.02 0.03 0.04 0.05 0.04 0.03
0.07 0.06 0.04 0.03 0.04 0.04 0.04 0.03 0.03 0.03 0.04 0.04 0.03 0.03 0.02 0.03 0.02 0.01 0.01 0.01 0.01 0.01 0.01 0.02 0.02 0.03 0.04 0.04 0.04 0.03 0.02 0.01 0.01 0.00 0.01 0.01 0.01 0.01 0.03 0.04 0.04 0.03 0.02
0.07 0.07 0.05 0.04 0.05 0.05 0.04 0.04 0.04 0.04 0.04 0.03 0.02 0.02 0.02 0.03 0.02 0.01 0.01 0.01 0.01 0.00 0.00 0.00 0.01 0.02 0.02 0.02 0.02 0.03 0.02 0.01 0.00 0.00 0.00 0.01 0.01 0.01 0.02 0.02 0.02 0.02 0.01
0.03 0.03 0.04 0.05 0.05 0.06 0.06 0.05 0.05 0.04 0.04 0.04 0.03 0.03 0.02 0.02 0.02 0.01 0.01 0.01 0.01 0.00 0.00 0.00 0.00 0.00 0.01 0.01 0.01 0.01 0.01 0.01 0.01 0.01 0.01 0.01 0.01 0.01 0.01 0.01 0.02 0.02 0.01
0.02 0.03 0.04 0.04 0.04 0.05 0.06 0.07 0.09 0.09 0.08 0.06 0.05 0.03 0.01 0.02 0.02 0.01 0.01 0.01 0.00 0.00 0.00 0.00 0.00 0.00 0.01 0.01 0.01 0.01 0.01 0.01 0.01 0.01 0.01 0.02 0.02 0.01 0.01 0.01 0.01 0.01 0.00
0.03 0.03 0.03 0.03 0.04 0.04 0.05 0.05 0.06 0.06 0.05 0.05 0.04 0.03 0.03 0.03 0.04 0.03 0.03 0.01 0.01 0.01 0.01 0.01 0.01 0.01 0.02 0.02 0.01 0.01 0.02 0.01 0.02 0.01 0.01 0.02 0.02 0.01 0.02 0.01 0.01 0.00 0.00
0.02 0.02 0.02 0.03 0.03 0.03 0.04 0.05 0.05 0.04 0.04 0.04 0.04 0.05 0.05 0.06 0.07 0.08 0.07 0.03 0.02 0.01 0.01 0.01 0.02 0.02 0.02 0.02 0.02 0.02 0.02 0.02 0.01 0.01 0.02 0.02 0.02 0.02 0.02 0.01 0.01 0.00 0.00
0.02 0.02 0.02 0.02 0.03 0.03 0.03 0.04 0.03 0.03 0.03 0.04 0.04 0.06 0.06 0.07 0.07 0.08 0.07 0.04 0.04 0.03 0.02 0.02 0.03 0.03 0.03 0.04 0.03 0.02 0.03 0.01 0.01 0.01 0.01 0.01 0.01 0.01 0.01 0.01 0.01 0.01 0.01
0.02 0.02 0.03 0.03 0.03 0.04 0.06 0.04 0.03 0.04 0.03 0.03 0.04 0.04 0.05 0.06 0.06 0.06 0.06 0.06 0.06 0.04 0.03 0.03 0.03 0.04 0.03 0.05 0.04 0.04 0.04 0.02 0.01 0.01 0.00 0.01 0.01 0.01 0.01 0.01 0.01 0.01 0.01
0.03 0.02 0.02 0.04 0.05 0.06 0.06 0.05 0.04 0.04 0.03 0.03 0.03 0.03 0.05 0.06 0.06 0.05 0.05 0.04 0.03 0.03 0.03 0.03 0.03 0.03 0.02 0.02 0.03 0.02 0.02 0.02 0.01 0.00 0.00 0.00 0.01 0.01 0.01 0.01 0.01 0.01 0.01
0.03 0.03 0.04 0.06 0.06 0.05 0.05 0.05 0.04 0.03 0.04 0.05 0.07 0.06 0.04 0.03 0.03 0.03 0.04 0.04 0.04 0.03 0.03 0.02 0.02 0.02 0.02 0.02 0.01 0.01 0.01 0.01 0.00 0.00 0.01 0.01 0.01 0.00 0.00 0.01 0.01 0.01 0.01
0.05 0.06 0.07 0.08 0.07 0.05 0.05 0.05 0.06 0.07 0.08 0.08 0.06 0.04 0.03 0.03 0.04 0.04 0.04 0.03 0.03 0.02 0.02 0.01 0.01 0.01 0.02 0.02 0.02 0.02 0.02 0.02 0.01 0.01 0.01 0.01 0.01 0.00 0.01 0.01 0.01 0.01 0.01
0.08 0.08 0.07 0.06 0.06 0.06 0.05 0.06 0.07 0.08 0.07 0.05 0.04 0.03 0.03 0.04 0.04 0.03 0.03 0.03 0.03 0.03 0.01 0.01 0.01 0.01 0.01 0.02 0.02 0.02 0.03 0.02 0.02 0.02 0.01 0.01 0.01 0.01 0.01 0.02 0.01 0.01 0.01
0.05 0.05 0.06 0.06 0.05 0.05 0.05 0.04 0.05 0.06 0.06 0.05 0.04 0.04 0.04 0.04 0.02 0.02 0.02 0.02 0.02 0.02 0.01 0.01 0.01 0.01 0.02 0.02 0.02 0.03 0.03 0.03 0.03 0.03 0.02 0.02 0.02 0.02 0.02 0.02 0.02 0.02 0.02
0.04 0.04 0.04 0.04 0.05 0.04 0.04 0.04 0.05 0.05 0.04 0.04 0.04 0.04 0.04 0.02 0.02 0.02 0.02 0.01 0.01 0.01 0.02 0.02 0.03 0.03 0.03 0.03 0.03 0.03 0.04 0.04 0.04 0.04 0.04 0.04 0.04 0.03 0.03 0.03 0.03 0.03 0.03
0.03 0.03 0.03 0.04 0.04 0.04 0.03 0.04 0.04 0.04 0.03 0.03 0.03 0.03 0.03 0.02 0.02 0.02 0.01 0.01 0.01 0.01 0.01 0.01 0.02 0.02 0.02 0.02 0.03 0.05 0.06 0.07 0.08 0.09 0.09 0.09 0.09 0.09 0.08 0.08 0.07 0.07 0.06
0.01 0.02 0.02 0.02 0.02 0.03 0.03 0.03 0.04 0.05 0.05 0.04 0.04 0.03 0.03 0.02 0.01 0.01 0.01 0.01 0.01 0.01 0.01 0.01 0.01 0.01 0.02 0.02 0.03 0.06 0.08 0.09 0.10 0.10 0.11 0.11 0.12 0.11 0.11 0.10 0.09 0.08 0.07
0.01 0.01 0.01 0.01 0.02 0.02 0.02 0.03 0.04 0.05 0.06 0.06 0.05 0.05 0.04 0.03 0.02 0.01 0.02 0.02 0.02 0.02 0.02 0.02 0.02 0.03 0.03 0.04 0.05 0.06 0.07 0.09 0.11 0.13 0.13 0.14 0.14 0.13 0.12 0.10 0.09 0.07 0.05
0.02 0.03 0.03 0.03 0.03 0.03 0.03 0.03 0.03 0.04 0.04 0.04 0.05 0.05 0.06 0.04 0.02 0.02 0.02 0.02 0.02 0.03 0.03 0.03 0.04 0.04 0.04 0.04 0.05 0.06 0.07 0.08 0.10 0.11 0.12 0.11 0.09 0.08 0.07 0.06 0.05 0.04 0.04
0.02 0.03 0.04 0.05 0.05 0.06 0.06 0.06 0.05 0.05 0.05 0.04 0.05 0.04 0.04 0.04 0.04 0.04 0.04 0.03 0.03 0.03 0.04 0.04 0.04 0.03 0.03 0.03 0.04 0.04 0.04 0.04 0.05 0.05 0.05 0.05 0.05 0.04 0.04 0.04 0.04 0.04 0.04
0.08 0.07 0.07 0.07 0.07 0.08 0.09 0.10 0.09 0.07 0.05 0.04 0.03 0.03 0.03 0.04 0.05 0.05 0.05 0.04 0.04 0.04 0.04 0.04 0.04 0.04 0.04 0.04 0.04 0.04 0.04 0.04 0.04 0.04 0.04 0.03 0.03 0.03 0.03 0.03 0.03 0.03 0.03
0.08 0.11 0.11 0.11 0.11 0.11 0.11 0.10 0.10 0.09 0.07 0.05 0.03 0.03 0.03 0.04 0.04 0.04 0.04 0.04 0.06 0.06 0.05 0.05 0.05 0.04 0.04 0.04 0.04 0.04 0.05 0.05 0.05 0.04 0.03 0.03 0.03 0.03 0.03 0.03 0.03 0.03 0.03
0.04 0.06 0.06 0.07 0.08 0.09 0.09 0.07 0.06 0.05 0.06 0.05 0.04 0.03 0.03 0.04 0.05 0.06 0.06 0.07 0.07 0.06 0.05 0.05 0.05 0.05 0.05 0.05 0.05 0.05 0.05 0.04 0.03 0.03 0.03 0.03 0.02 0.03 0.03 0.03 0.02 0.02 0.03
MSLP
1015.42 1015.53 1015.62 1015.66 1015.64 1015.58 1015.50 1015.43 1015.39 1015.40 1015.46 1015.55 1015.67 1015.77 1015.84 1015.87 1015.87 1015.84 1015.80 1015.78 1015.79 1015.82 1015.89 1015.96 1016.01 1016.05 1016.05 1016.02 1015.99 1015.98 1016.04 1016.18 1016.41 1016.74 1017.15 1017.60 1018.06 1018.47 1018.82 1019.09 1019.28 1019.40 1019.50
1015.57 1015.60 1015.60 1015.55 1015.45 1015.31 1015.16 1015.03 1014.96 1014.94 1014.99 1015.08 1015.19 1015.30 1015.39 1015.45 1015.47 1015.48 1015.47 1015.48 1015.52 1015.58 1015.66 1015.74 1015.81 1015.85 1015.85 1015.83 1015.80 1015.81 1015.88 1016.03 1016.29 1016.66 1017.11 1017.61 1018.11 1018.58 1018.99 1019.32 1019.57 1019.74 1019.88
1015.84 1015.81 1015.73 1015.58 1015.39 1015.16 1014.93 1014.74 1014.60 1014.54 1014.55 1014.61 1014.71 1014.81 1014.90 1014.97 1015.01 1015.03 1015.05 1015.09 1015.15 1015.25 1015.35 1015.46 1015.56 1015.62 1015.65 1015.65 1015.65 1015.67 1015.75 1015.92 1016.19 1016.56 1017.02 1017.54 1018.07 1018.57 1019.02 1019.40 1019.70 1019.93 1020.12
1016.21 1016.12 1015.97 1015.75 1015.47 1015.16 1014.84 1014.57 1014.37 1014.24 1014.19 1014.21 1014.27 1014.34 1014.41 1014.45 1014.48 1014.50 1014.53 1014.58 1014.67 1014.78 1014.92 1015.07 1015.20 1015.31 1015.38 1015.43 1015.46 1015.51 1015.61 1015.78 1016.04 1016.40 1016.84 1017.34 1017.87 1018.39 1018.86 1019.28 1019.63 1019.92 1020.16
1016.63 1016.52 1016.32 1016.03 1015.68 1015.29 1014.90 1014.56 1014.28 1014.09 1013.97 1013.92 1013.92 1013.93 1013.95 1013.95 1013.94 1013.92 1013.93 1013.96 1014.04 1014.17 1014.33 1014.51 1014.68 1014.84 1014.97 1015.07 1015.15 1015.24 1015.35 1015.53 1015.78 1016.11 1016.52 1016.99 1017.49 1018.00 1018.49 1018.93 1019.33 1019.68 1019.99
1017.07 1016.94 1016.70 1016.38 1015.97 1015.53 1015.09 1014.68 1014.34 1014.08 1013.89 1013.77 1013.69 1013.62 1013.56 1013.48 1013.40 1013.32 1013.26 1013.25 1013.30 1013.41 1013.56 1013.76 1013.97 1014.18 1014.36 1014.52 1014.66 1014.79 1014.93 1015.11 1015.35 1015.66 1016.03 1016.46 1016.93 1017.42 1017.90 1018.37 1018.81 1019.22 1019.60
1017.48 1017.33 1017.08 1016.73 1016.30 1015.83 1015.35 1014.90 1014.51 1014.19 1013.94 1013.74 1013.58 1013.42 1013.26 1013.08 1012.90 1012.72 1012.58 1012.49 1012.47 1012.53 1012.66 1012.84 1013.07 1013.31 1013.54 1013.76 1013.95 1014.13 1014.31 1014.51 1014.75 1015.03 1015.38 1015.77 1016.21 1016.68 1017.16 1017.64 1018.12 1018.58 1019.02
1017.79 1017.64 1017.38 1017.03 1016.59 1016.11 1015.62 1015.15 1014.73 1014.37 1014.07 1013.81 1013.56 1013.32 1013.05 1012.77 1012.48 1012.19 1011.93 1011.74 1011.62 1011.60 1011.67 1011.82 1012.03 1012.28 1012.55 1012.80 1013.05 1013.28 1013.51 1013.74 1013.99 1014.28 1014.61 1014.98 1015.40 1015.85 1016.33 1016.82 1017.32 1017.82 1018.32
1017.96 1017.81 1017.55 1017.20 1016.77 1016.30 1015.82 1015.35 1014.93 1014.55 1014.21 1013.91 1013.60 1013.28 1012.93 1012.55 1012.15 1011.75 1011.37 1011.06 1010.84 1010.72 1010.70 1010.79 1010.96 1011.19 1011.46 1011.75 1012.03 1012.32 1012.59 1012.87 1013.15 1013.46 1013.80 1014.17 1014.57 1015.02 1015.49 1015.99 1016.50 1017.03 1017.57
1017.97 1017.80 1017.54 1017.20 1016.79 1016.33 1015.87 1015.43 1015.01 1014.64 1014.29 1013.96 1013.62 1013.25 1012.84 1012.39 1011.91 1011.42 1010.95 1010.53 1010.19 1009.96 1009.85 1009.84 1009.95 1010.13 1010.38 1010.67 1010.99 1011.31 1011.63 1011.96 1012.29 1012.64 1013.00 1013.39 1013.80 1014.25 1014.72 1015.21 1015.73 1016.27 1016.82
1017.80 1017.61 1017.34 1017.00 1016.60 1016.17 1015.73 1015.32 1014.93 1014.58 1014.24 1013.92 1013.57 1013.19 1012.76 1012.28 1011.75 1011.20 1010.66 1010.16 1009.72 1009.39 1009.17 1009.07 1009.08 1009.19 1009.39 1009.66 1009.97 1010.32 1010.68 1011.06 1011.45 1011.85 1012.26 1012.68 1013.11 1013.57 1014.04 1014.53 1015.04 1015.57 1016.12
1017.48 1017.25 1016.96 1016.60 1016.21 1015.79 1015.38 1015.00 1014.64 1014.32 1014.02 1013.72 1013.40 1013.04 1012.63 1012.16 1011.63 1011.07 1010.50 1009.94 1009.44 1009.01 1008.68 1008.47 1008.37 1008.39 1008.50 1008.72 1009.01 1009.35 1009.74 1010.17 1010.61 1011.07 1011.54 1012.01 1012.48 1012.96 1013.44 1013.92 1014.42 1014.94 1015.47
1017.05 1016.77 1016.43 1016.05 1015.65 1015.25 1014.86 1014.49 1014.17 1013.88 1013.61 1013.36 1013.09 1012.78 1012.42 1012.00 1011.51 1010.98 1010.41 1009.83 1009.28 1008.77 1008.34 1008.01 1007.79 1007.68 1007.70 1007.83 1008.06 1008.38 1008.78 1009.23 1009.73 1010.25 1010.78 1011.31 1011.84 1012.35 1012.85 1013.35 1013.84 1014.33 1014.84
1016.57 1016.22 1015.84 1015.43 1015.01 1014.60 1014.21 1013.86 1013.55 1013.29 1013.06 1012.85 1012.63 1012.39 1012.10 1011.74 1011.33 1010.84 1010.30 1009.73 1009.14 1008.57 1008.05 1007.60 1007.24 1007.00 1006.89 1006.91 1007.06 1007.33 1007.71 1008.18 1008.71 1009.29 1009.90 1010.51 1011.10 1011.67 1012.21 1012.73 1013.23 1013.72 1014.21
1016.09 1015.68 1015.25 1014.80 1014.36 1013.93 1013.53 1013.18 1012.88 1012.62 1012.41 1012.23 1012.06 1011.87 1011.64 1011.36 1011.01 1010.59 1010.09 1009.52 1008.92 1008.29 1007.68 1007.11 1006.62 1006.23 1005.98 1005.87 1005.92 1006.12 1006.47 1006.93 1007.50 1008.14 1008.82 1009.51 1010.18 1010.83 1011.44 1012.01 1012.54 1013.05 1013.55
1015.65 1015.19 1014.72 1014.24 1013.78 1013.33 1012.91 1012.53 1012.21 1011.95 1011.73 1011.55 1011.39 1011.24 1011.05 1010.82 1010.52 1010.14 1009.67 1009.12 1008.49 1007.81 1007.11 1006.43 1005.81 1005.28 1004.89 1004.65 1004.59 1004.71 1005.01 1005.47 1006.06 1006.75 1007.51 1008.29 1009.06 1009.80 1010.50 1011.15 1011.75 1012.30 1012.83
1015.28 1014.78 1014.29 1013.79 1013.30 1012.83 1012.38 1011.97 1011.62 1011.31 1011.06 1010.85 1010.67 1010.51 1010.33 1010.11 1009.82 1009.46 1009.00 1008.44 1007.78 1007.05 1006.28 1005.51 1004.77 1004.12 1003.60 1003.25 1003.09 1003.14 1003.40 1003.85 1004.46 1005.20 1006.03 1006.90 1007.78 1008.63 1009.44 1010.18 1010.86 1011.49 1012.08
1014.93 1014.43 1013.93 1013.42 1012.92 1012.43 1011.96 1011.51 1011.11 1010.74 1010.42 1010.15 1009.91 1009.69 1009.47 1009.22 1008.91 1008.53 1008.06 1007.48 1006.79 1006.02 1005.20 1004.35 1003.54 1002.80 1002.19 1001.75 1001.53 1001.52 1001.75 1002.19 1002.82 1003.60 1004.50 1005.46 1006.44 1007.40 1008.32 1009.17 1009.95 1010.66 1011.32
1014.58 1014.09 1013.60 1013.10 1012.60 1012.10 1011.60 1011.12 1010.65 1010.21 1009.80 1009.44 1009.11 1008.80 1008.49 1008.18 1007.82 1007.39 1006.88 1006.28 1005.57 1004.78 1003.93 1003.05 1002.20 1001.43 1000.78 1000.30 1000.04 1000.01 1000.23 1000.67 1001.32 1002.15 1003.10 1004.13 1005.19 1006.24 1007.25 1008.20 1009.08 1009.88 1010.62
1014.17 1013.71 1013.24 1012.77 1012.28 1011.78 1011.26 1010.73 1010.20 1009.68 1009.18 1008.71 1008.27 1007.85 1007.44 1007.03 1006.59 1006.11 1005.57 1004.94 1004.23 1003.44 1002.61 1001.76 1000.93 1000.17 999.54 999.08 998.83 998.81 999.03 999.48 1000.15 1001.00 1001.98 1003.05 1004.17 1005.28 1006.36 1007.38 1008.33 1009.21 1010.01
1013.69 1013.26 1012.82 1012.38 1011.91 1011.41 1010.88 1010.31 1009.73 1009.14 1008.55 1007.97 1007.41 1006.88 1006.36 1005.86 1005.35 1004.81 1004.24 1003.61 1002.92 1002.18 1001.41 1000.63 999.88 999.20 998.64 998.25 998.05 998.07 998.31 998.78 999.46 1000.30 1001.29 1002.36 1003.48 1004.61 1005.72 1006.77 1007.76 1008.68 1009.52
1013.17 1012.75 1012.34 1011.92 1011.47 1010.97 1010.44 1009.85 1009.23 1008.57 1007.91 1007.24 1006.59 1005.96 1005.36 1004.77 1004.20 1003.63 1003.05 1002.45 1001.82 1001.16 1000.50 999.84 999.22 998.67 998.23 997.93 997.81 997.89 998.17 998.64 999.30 1000.12 1001.07 1002.10 1003.18 1004.28 1005.36 1006.40 1007.39 1008.31 1009.16
1012.66 1012.25 1011.86 1011.45 1011.01 1010.52 1009.98 1009.38 1008.74 1008.05 1007.33 1006.61 1005.90 1005.20 1004.54 1003.91 1003.32 1002.74 1002.19 1001.64 1001.10 1000.56 1000.03 999.52 999.06 998.67 998.37 998.20 998.17 998.30 998.60 999.07 999.69 1000.45 1001.31 1002.26 1003.25 1004.26 1005.26 1006.24 1007.18 1008.07 1008.90
1012.27 1011.86 1011.46 1011.05 1010.62 1010.14 1009.60 1009.01 1008.36 1007.66 1006.93 1006.19 1005.45 1004.74 1004.06 1003.42 1002.83 1002.29 1001.79 1001.32 1000.89 1000.48 1000.09 999.75 999.45 999.21 999.05 998.99 999.05 999.22 999.53 999.96 1000.51 1001.17 1001.92 1002.74 1003.60 1004.48 1005.37 1006.25 1007.11 1007.93 1008.71
1012.12 1011.69 1011.27 1010.86 1010.42 1009.94 1009.42 1008.84 1008.21 1007.53 1006.82 1006.09 1005.37 1004.68 1004.02 1003.41 1002.86 1002.37 1001.94 1001.56 1001.24 1000.95 1000.71 1000.51 1000.35 1000.25 1000.20 1000.23 1000.33 1000.52 1000.80 1001.17 1001.63 1002.16 1002.76 1003.42 1004.12 1004.86 1005.61 1006.36 1007.11 1007.85 1008.57
1012.27 1011.81 1011.37 1010.95 1010.51 1010.04 1009.53 1008.98 1008.39 1007.75 1007.09 1006.42 1005.75 1005.10 1004.50 1003.94 1003.45 1003.03 1002.68 1002.38 1002.15 1001.97 1001.84 1001.75 1001.69 1001.68 1001.71 1001.77 1001.89 1002.06 1002.28 1002.56 1002.89 1003.28 1003.73 1004.22 1004.75 1005.32 1005.91 1006.53 1007.17 1007.81 1008.46
Thickness
5794 5791 5788 5784 5781 5778 5774 5771 5768 5764 5760 5757 5753 5750 5746 5744 5742 5739 5736 5734 5732 5730 5728 5725 5723 5721 5719 5717 5714 5711 5707 5703 5695 5689 5686 5682 5680 5678 5675 5673 5672 5671 5670
5796 5792 5788 5785 5781 5778 5774 5771 5768 5763 5760 5756 5752 5748 5745 5742 5739 5736 5733 5731 5729 5726 5724 5721 5719 5717 5715 5713 5710 5706 5703 5700 5695 5687 5681 5677 5674 5671 5669 5667 5666 5664 5663
5797 5792 5788 5784 5781 5777 5774 5770 5767 5762 5758 5754 5750 5746 5742 5739 5736 5733 5731 5728 5726 5723 5720 5717 5715 5713 5711 5708 5706 5702 5699 5696 5692 5687 5679 5674 5670 5666 5663 5661 5659 5658 5657
5795 5790 5786 5783 5780 5777 5773 5769 5765 5761 5757 5752 5748 5744 5740 5737 5734 5731 5728 5725 5722 5719 5717 5714 5712 5710 5707 5705 5702 5698 5695 5691 5687 5682 5676 5671 5666 5662 5659 5657 5654 5652 5651
5793 5788 5785 5783 5779 5775 5772 5768 5764 5760 5756 5750 5746 5742 5738 5735 5733 5729 5726 5723 5719 5716 5714 5711 5709 5707 5705 5702 5699 5694 5691 5687 5682 5678 5672 5668 5663 5659 5657 5653 5650 5647 5645
5790 5787 5784 5780 5776 5772 5769 5765 5761 5757 5752 5748 5744 5740 5736 5734 5731 5728 5724 5720 5716 5713 5711 5708 5706 5703 5701 5699 5696 5693 5690 5685 5680 5676 5671 5667 5663 5659 5654 5651 5646 5644 5641
5788 5785 5781 5777 5772 5769 5765 5761 5757 5753 5749 5745 5742 5738 5734 5731 5728 5724 5721 5717 5713 5710 5707 5704 5702 5700 5698 5694 5692 5689 5686 5683 5680 5677 5672 5668 5664 5660 5654 5648 5644 5642 5639
5783 5781 5778 5774 5769 5765 5761 5757 5753 5750 5746 5742 5738 5735 5731 5728 5725 5721 5717 5713 5710 5707 5704 5702 5699 5696 5694 5690 5687 5684 5681 5679 5676 5674 5672 5669 5664 5659 5654 5649 5643 5637 5633
5778 5776 5773 5770 5765 5761 5756 5753 5750 5746 5742 5738 5735 5731 5727 5725 5722 5717 5712 5708 5705 5702 5700 5698 5695 5692 5689 5686 5682 5679 5676 5674 5672 5670 5667 5663 5660 5655 5650 5644 5638 5635 5631
5775 5772 5770 5766 5761 5757 5753 5749 5745 5741 5737 5734 5730 5727 5724 5721 5717 5713 5708 5704 5700 5697 5695 5693 5690 5688 5685 5682 5678 5675 5672 5669 5667 5665 5661 5657 5654 5649 5645 5642 5639 5634 5630
5769 5765 5763 5759 5756 5753 5749 5744 5739 5735 5732 5728 5725 5722 5720 5717 5713 5709 5704 5700 5697 5693 5690 5687 5686 5683 5680 5677 5674 5672 5669 5666 5663 5659 5656 5652 5648 5644 5640 5637 5634 5631 5628
5761 5758 5755 5752 5749 5746 5741 5737 5733 5729 5725 5721 5718 5716 5714 5711 5707 5704 5700 5696 5693 5689 5686 5684 5681 5678 5675 5672 5669 5667 5664 5660 5656 5653 5650 5646 5643 5640 5637 5634 5630 5627 5624
5751 5749 5747 5744 5741 5737 5733 5729 5726 5722 5718 5714 5711 5709 5707 5705 5701 5698 5695 5691 5688 5684 5682 5679 5676 5672 5670 5666 5664 5661 5658 5654 5651 5648 5645 5642 5640 5636 5632 5628 5624 5621 5618
5742 5740 5738 5734 5732 5729 5725 5722 5719 5716 5712 5708 5704 5702 5700 5698 5695 5692 5689 5685 5682 5678 5675 5673 5669 5666 5663 5661 5658 5655 5652 5649 5647 5644 5641 5638 5634 5630 5627 5623 5620 5616 5612
5733 5731 5729 5725 5723 5720 5717 5715 5712 5710 5709 5705 5701 5698 5694 5692 5691 5687 5684 5680 5677 5673 5669 5666 5663 5660 5657 5655 5652 5649 5646 5643 5640 5638 5635 5632 5629 5625 5622 5618 5615 5612 5609
5723 5721 5719 5717 5714 5711 5708 5705 5704 5702 5699 5697 5695 5693 5690 5687 5684 5680 5677 5674 5670 5666 5662 5660 5658 5655 5653 5650 5647 5644 5641 5638 5636 5633 5630 5627 5624 5621 5618 5613 5610 5607 5605
5712 5711 5709 5707 5705 5703 5700 5698 5695 5693 5690 5687 5685 5684 5682 5678 5675 5672 5669 5665 5662 5658 5656 5655 5652 5650 5648 5645 5643 5640 5638 5635 5631 5628 5626 5623 5620 5616 5613 5609 5605 5602 5600
5702 5701 5700 5698 5696 5694 5692 5690 5688 5685 5682 5680 5677 5674 5672 5670 5667 5663 5660 5655 5653 5651 5650 5649 5647 5645 5642 5640 5638 5636 5633 5630 5626 5624 5621 5619 5615 5612 5608 5605 5601 5598 5596
5690 5690 5689 5688 5686 5685 5683 5682 5680 5677 5674 5672 5669 5666 5663 5660 5657 5654 5651 5650 5649 5647 5644 5643 5641 5639 5637 5635 5633 5630 5627 5624 5622 5619 5616 5613 5610 5606 5603 5600 5597 5593 5590
5679 5679 5678 5677 5675 5675 5674 5672 5670 5668 5666 5664 5662 5659 5655 5652 5650 5648 5645 5644 5643 5641 5639 5637 5635 5633 5631 5629 5627 5624 5621 5619 5616 5613 5610 5607 5604 5601 5598 5595 5593 5590 5586
5668 5667 5667 5666 5665 5665 5664 5663 5661 5659 5658 5658 5655 5653 5648 5646 5645 5643 5640 5638 5636 5635 5633 5631 5629 5626 5624 5622 5620 5618 5615 5613 5610 5607 5604 5601 5598 5595 5592 5590 5587 5584 5581
5658 5658 5657 5656 5656 5655 5655 5653 5652 5650 5649 5649 5647 5644 5640 5639 5638 5636 5634 5633 5630 5629 5627 5624 5623 5620 5619 5617 5614 5612 5609 5607 5604 5601 5597 5594 5591 5588 5586 5584 5581 5578 5574
5648 5648 5647 5647 5646 5646 5645 5644 5643 5641 5641 5640 5639 5637 5634 5631 5629 5628 5627 5625 5623 5621 5619 5617 5615 5614 5612 5610 5608 5606 5603 5601 5598 5594 5591 5588 5585 5582 5580 5577 5574 5571 5568
5638 5638 5637 5637 5636 5636 5636 5635 5634 5633 5632 5631 5630 5628 5626 5624 5622 5621 5619 5618 5615 5614 5612 5609 5608 5606 5604 5602 5600 5598 5596 5594 5590 5587 5585 5582 5579 5576 5573 5570 5567 5564 5561
5627 5627 5626 5626 5626 5625 5625 5625 5624 5623 5622 5621 5620 5619 5617 5616 5614 5613 5612 5610 5608 5606 5604 5603 5601 5598 5596 5594 5592 5590 5587 5585 5582 5579 5577 5574 5572 5569 5566 5563 5560 5557 5554
5617 5616 5615 5615 5616 5615 5615 5615 5614 5614 5612 5612 5610 5609 5608 5606 5605 5603 5602 5601 5600 5598 5596 5594 5592 5590 5588 5585 5583 5580 5578 5575 5573 5570 5568 5566 5564 5562 5559 5556 5553 5550 5547